Find OneWeb SL0518

NORAD ID: 54136 Int'l Des: 2022-138 Owner: ONEWEBN Country: UK Constellation: oneweb operational
LEOCIRCULARPOLARONEWEB_TYPE

Live Position

Loading 3D Globe...

About OneWeb SL0518

Description loading...

Upcoming Passes

Passes for default location (London). Set your location on the main map for personalized predictions.

Altitude History

Loading altitude history...

Two-Line Element Set

1 54136U 22138Z 26107.11312970 -.00000051 00000-0 -16009-3 0 9992
2 54136 87.9162 317.1559 0001884 81.4383 278.6963 13.19727428168777
Epoch: Apr 17, 2026 • Age: 10 hours

Current Status

Altitude 1215.9 km
Velocity 7.25 km/s
Sub-Earth Point -86.62°S, 124.26°W
Launch Date Oct 22, 2022
Age 3.4 years
Type internet

Technical Details

Classification Payload
Mass 148.00 kg
Dry Mass 140.00 kg
Total Mass 148.00 kg
Length 1.30 m
Diameter 1.00 m
Span 5.00 m
Shape Trapezoid+2 pan
Manufacturer ONEWUS
Bus Type ARROW
Phase Status In Orbit
Owner/State ONEWEBN/UK

Most Searched